Regional Weather Roundup
Issued by NWS Charleston, SC

Current Version | Previous Version | Graphics & Text | Print | Product List | Glossary On
Versions: 1 2 3 4 5 6 7 8 9 10 11 12 13 14 15 16 17 18 19 20 21 22 23 24 25 26 27 28 29 30 31 32 33 34 35 36 37 38 39 40 41 42 43 44 45 46 47 48 49 50
000
ASUS42 KCHS 051312
RWRCHS

REGIONAL WEATHER ROUNDUP
NATIONAL WEATHER SERVICE CHARLESTON SC
900 AM EDT TUE MAY 05 2015

NOTE: "FAIR" INDICATES FEW OR NO CLOUDS BELOW 12,000 FEET WITH NO
SIGNIFICANT WEATHER AND/OR OBSTRUCTIONS TO VISIBILITY.

NOT ALL STATIONS ARE QUALITY CONTROLLED BY THE NATIONAL
WEATHER SERVICE. USE DATA WITH CAUTION...ESPECIALLY
DEWPOINT OBSERVATIONS.

SCZ027-030-031-034>040-042>050-051400-
...SOUTHEAST SOUTH CAROLINA...

CITY           SKY/WX    TMP DP  RH WIND       PRES   REMARKS
N CHARLESTON   MOSUNNY   70  59  68 E8        30.33R
WATERFRONT PRK   N/A     70 N/A N/A NE9         N/A
MOUNT PLEASANT FAIR      70  61  73 MISG      30.33S
PINOPOLIS      NOT AVBL
MONCKS CORNER  FAIR      70  59  68 E5        30.34S
SUMMERVILLE    FAIR      68  61  77 CALM      30.34S
BEAUFORT MCAS  MOSUNNY   71  62  73 N6        30.32R
BEAUFORT ARPT  FAIR      70  64  83 NE9       30.31S
HILTON HEAD IS NOT AVBL
WALTERBORO     SUNNY     68  57  68 E7        30.34S
ALLENDALE      FAIR      68  59  73 CALM      30.33S

...SOUTHERN MIDLANDS AND PEE DEE...

CITY           SKY/WX    TMP DP  RH WIND       PRES   REMARKS
GEORGETOWN     NOT AVBL
KINGSTREE      NOT AVBL
ORANGEBURG     SUNNY     68  57  68 NE3       30.35R
BARNWELL       FAIR      66  61  82 E3        30.35S
AIKEN          FAIR      63  54  72 E3        30.38S
MANNING        FAIR      66  50  55 E3        30.35S HAZE
COLUMBIA       SUNNY     66  57  72 CALM      30.35S
SUMTER         SUNNY     66  57  73 NE2       30.35R
FLORENCE       SUNNY     68  58  70 CALM      30.36R
MYRTLE BEACH   NOT AVBL
N MYRTLE BEACH SUNNY     71  61  70 NE5       30.35R

$$

GAZ063-065-086>088-099>101-113>116-118-119-134>141-150-051400-
...SOUTHEAST GEORGIA...

CITY           SKY/WX    TMP DP  RH WIND       PRES   REMARKS
SAVANNAH ARPT  MOSUNNY   69  61  75 NE6       30.30S
HUNTER AAF     NOT AVBL
FORT STEWART   SUNNY     69  62  79 NE7       30.28R
STATESBORO       N/A     66  64  93 E3        30.33R
SYLVANIA       SUNNY     67  61  81 E6        30.34R
CLAXTON        FAIR      68  63  83 NE6       30.31S

...CSRA...CENTRAL AND FAR SOUTHEAST GEORGIA...

CITY           SKY/WX    TMP DP  RH WIND       PRES   REMARKS
THOMSON        SUNNY     66  62  86 CALM      30.40R
AUGUSTA-BUSH   SUNNY     65  58  78 CALM      30.35R
AUGUSTA-DANIEL SUNNY     69  56  62 NE3       30.36R
SWAINSBORO     NOT AVBL
VIDALIA        SUNNY     66  61  82 E6        30.32R
EASTMAN        FAIR      67  63  86 E6        30.35R
HAZLEHURST     FAIR      68  63  83 NE6       30.30S
ALMA           SUNNY     69  61  75 VRB5      30.29R
WAYCROSS       SUNNY     72  65  77 E6        30.28S
JESUP          FAIR      72  66  83 E7        30.29S
BAXLEY         FAIR      70  63  78 E6        30.30R
BRUNSWICK      SUNNY     70  63  78 NE7       30.28S
SAINT SIMONS   MOSUNNY   73  61  65 NE15      30.27R

$$

SCZ027-028-034-036>038-045-046-048>050-GAZ119-141-051400-
...LAKE AND SUPPLEMENTAL COASTAL OBSERVATIONS...

STATION/POSITION TIME  TEMP    WIND        PRES    WAVE   SWELL
                       AIR SEA DIR/SP/G            HT/PER HT/PER/DIR
                 (UTC) (F)     (DEG/KT/KT) (MB)    (FT/S) (FT/S/D)
UPR LAKE MARION  NOT AVBL
WINYAH BAY       1145   62     340/  2     1026.0
LAKE MURRAY      1200   64      20/  1/  2 1027.1R
ACE BASIN NERRS  NOT AVBL
FORT PULASKI     1206   69 71   30/  7/  9 1026.2R
SAPELO ISLAND    1200   69      30/  5     1025.0R

$$

ANZ835-935-AMZ111-154-330-350-352-354-370-450-454-472-051400-
...C-MAN AND BUOY OBSERVATIONS...

STATION/POSITION TIME  TEMP    WIND        PRES    WAVE   SWELL
                       AIR SEA DIR/SP/G            HT/PER HT/PER/DIR
                 (UTC) (F)     (DEG/KT/KT) (MB)    (FT/S) (FT/S/D)
BUOY 41004       1250   72 73   70/ 12/ 14 1025.9R   3/ 7   3/ 7
BUOY 41008       1250   71 70   60/ 12/ 14 1025.1R   4/ 6   3/110/ 6
FOLLY BEACH CMAN 1300   70      30/ 10/ 11 1026.7R
CAPERS NEARSHORE 1208   71      60/ 10/ 12 1026.6R
FRIPP NEARSHORE  1200   71      60/ 10/ 10 1025.1R


STATION/POSITION TIME  TEMP    WIND        PRES    WAVE   SWELL
                       AIR SEA DIR/SP/G            HT/PER HT/PER/DIR
                 (UTC) (F)     (DEG/KT/KT) (MB)    (FT/S) (FT/S/D)
5E ST. MARYS GA  1221      73                N/A     4/ 6
FRYING PAN BUOY  1250   72 71  100/ 10/ 10 1028.2R   3/ 6   3/130/ 6
BUOY 41025       1250   73 76  190/  8/ 12 1028.7R   3/ 8   2/ 70/ 8
CAPE LOOKOUT NC  1200   69     170/  4/  4 1028.0R
BUOY 41002       1250   69 70  100/ 17/ 21 1027.0F   5/ 9   3/ 60/ 9
BUOY 41010       1220   74 78   80/ 17/ 21 1022.0R
ST AUGUSTINE FL  1300   72 71   40/  5/  6 1024.2R


$$



USA.gov is the U.S. government's official web portal to all federal, state and local government web resources and services.